KC8JWT Weather Reports


time (UTC)temp
C
wind
direction
speed
KPH
gust
KPH
rain 1hr
cm
rain 24hr
cm
rain mn
cm
humidity
%
barometer
mb
20260510175745 20 136 0.0 0.0 0.00 0.13 0.13 72 1015.9
20260510175240 20 138 0.0 0.0 0.00 0.13 0.13 69 1016.2
20260510174738 20 144 1.6 4.8 0.00 0.13 0.13 72 1016.1
20260510174235 20 101 1.6 3.2 0.00 0.13 0.13 72 1016.1
20260510173731 20 185 4.8 4.8 0.00 0.13 0.13 73 1015.8
20260510173227 20 147 0.0 1.6 0.00 0.13 0.13 74 1016.0
20260510172722 20 94 1.6 1.6 0.00 0.13 0.13 74 1016.0
20260510172219 20 100 0.0 1.6 0.00 0.13 0.13 75 1015.9
20260510171716 20 161 0.0 0.0 0.00 0.13 0.13 79 1016.1
20260510171213 20 122 0.0 0.0 0.00 0.13 0.13 80 1016.0
20260510170710 20 141 3.2 8.0 0.00 0.13 0.13 81 1016.0
20260510170206 19 95 0.0 1.6 0.00 0.13 0.13 82 1016.0
20260510165702 18 101 1.6 1.6 0.00 0.13 0.13 82 1016.0
20260510165158 18 128 0.0 1.6 0.00 0.13 0.13 83 1016.0
20260510164656 18 124 0.0 1.6 0.00 0.13 0.13 83 1016.3
20260510164153 20 358 1.6 3.2 0.00 0.13 0.13 82 1015.9
20260510163648 19 133 3.2 3.2 0.00 0.13 0.13 81 1016.2
20260510163143 18 118 0.0 0.0 0.00 0.13 0.13 83 1016.2
20260510162643 18 141 1.6 3.2 0.00 0.13 0.13 85 1016.1
20260510162140 18 156 0.0 0.0 0.00 0.13 0.13 88 1016.0
20260510161636 18 164 0.0 1.6 0.00 0.13 0.13 87 1015.9
20260510161133 18 164 0.0 0.0 0.00 0.13 0.13 87 1015.8
20260510160630 18 152 0.0 1.6 0.00 0.13 0.13 88 1015.6
20260510160130 17 133 0.0 0.0 0.00 0.13 0.13 89 1015.6
20260510155626 17 100 1.6 3.2 0.00 0.13 0.13 88 1015.3
20260510155122 17 111 0.0 0.0 0.00 0.13 0.13 89 1015.5
20260510154618 17 105 0.0 1.6 0.00 0.13 0.13 90 1015.2
20260510154113 16 117 0.0 0.0 0.00 0.13 0.13 94 1015.2
20260510153609 16 125 0.0 0.0 0.00 0.13 0.13 97 1015.0
20260510153106 16 101 0.0 0.0 0.00 0.13 0.13 99 1015.3
20260510152602 16 111 0.0 0.0 0.00 0.13 0.13 99 1015.2
20260510152059 16 125 0.0 0.0 0.00 0.13 0.13 99 1015.6
20260510151555 15 119 0.0 0.0 0.00 0.13 0.13 99 1015.2
20260510151053 15 133 0.0 0.0 0.00 0.13 0.13 99 1015.2
20260510150547 15 140 0.0 1.6 0.00 0.13 0.13 99 1015.3
20260510150044 15 147 1.6 1.6 0.00 0.13 0.13 99 1015.1
20260510145541 15 130 0.0 1.6 0.00 0.13 0.13 99 1015.2
20260510145037 15 123 0.0 0.0 0.00 0.13 0.13 99 1014.9
20260510144534 15 123 0.0 0.0 0.13 0.13 0.13 99 1014.9
20260510144030 15 123 0.0 0.0 0.13 0.13 0.13 98 1014.9
20260510143525 15 124 0.0 0.0 0.00 0.10 0.10 96 1014.7
20260510143022 16 125 0.0 0.0 0.18 0.10 0.10 95 1015.1
20260510142519 16 118 0.0 0.0 0.18 0.10 0.10 94 1014.9
20260510142015 16 131 0.0 0.0 0.30 0.08 0.08 93 1014.9
20260510141512 16 139 0.0 0.0 0.43 0.08 0.08 90 1014.8
20260510141010 17 123 0.0 0.0 0.13 0.03 0.03 87 1015.2
20260510140506 17 130 0.0 0.0 0.00 0.00 0.00 83 1015.0
20260510140005 18 152 1.6 1.6 0.00 0.00 0.00 81 1014.6
20260510135501 18 162 3.2 3.2 0.00 0.00 0.00 79 1014.5
20260510134958 19 151 0.0 1.6 0.00 0.00 0.00 79 1014.5
20260510134455 19 178 4.8 4.8 0.00 0.00 0.00 78 1014.5
20260510133952 18 167 4.8 4.8 0.00 0.00 0.00 79 1014.3
20260510133448 18 161 4.8 4.8 0.00 0.00 0.00 81 1014.5
20260510132943 18 150 1.6 1.6 0.00 0.00 0.00 81 1014.6
20260510132441 18 152 3.2 4.8 0.00 0.00 0.00 82 1014.6
20260510131938 18 149 1.6 1.6 0.00 0.00 0.00 83 1014.5
20260510131435 17 124 0.0 0.0 0.00 0.00 0.00 85 1014.3
20260510130932 16 173 3.2 3.2 0.00 0.00 0.00 86 1014.2
20260510130429 16 165 3.2 3.2 0.00 0.00 0.00 85 1014.3
20260510125927 16 151 1.6 1.6 0.00 0.00 0.00 86 1014.2
20260510125422 16 162 1.6 3.2 0.00 0.00 0.00 87 1014.1
20260510124919 16 166 1.6 1.6 0.00 0.00 0.00 87 1014.2
20260510124415 16 173 1.6 1.6 0.00 0.00 0.00 88 1014.0
20260510123912 16 168 3.2 3.2 0.00 0.00 0.00 88 1014.2
20260510123407 16 170 1.6 1.6 0.00 0.00 0.00 88 1013.9
20260510122904 16 165 0.0 0.0 0.00 0.00 0.00 88 1014.2
20260510122359 16 165 0.0 1.6 0.00 0.00 0.00 88 1014.0
20260510121855 16 164 0.0 0.0 0.00 0.00 0.00 88 1013.9
20260510121353 16 164 1.6 1.6 0.00 0.00 0.00 87 1014.0
20260510120850 16 163 0.0 0.0 0.00 0.00 0.00 87 1013.9
20260510120348 16 162 1.6 1.6 0.00 0.00 0.00 88 1013.8
20260510115843 15 159 0.0 0.0 0.00 0.00 0.00 89 1013.6
20260510115340 15 159 0.0 0.0 0.00 0.00 0.00 89 1013.8
20260510114836 15 159 0.0 0.0 0.00 0.00 0.00 89 1013.6
20260510114334 15 159 1.6 1.6 0.00 0.00 0.00 89 1013.6
20260510113833 15 156 1.6 1.6 0.00 0.00 0.00 90 1013.5
20260510113330 15 148 0.0 0.0 0.00 0.00 0.00 91 1013.4
20260510112827 15 148 0.0 0.0 0.00 0.00 0.00 91 1013.3
20260510112324 14 155 3.2 3.2 0.00 0.00 0.00 92 1013.0
20260510111820 13 168 3.2 3.2 0.00 0.00 0.00 94 1012.6
20260510111317 13 151 1.6 1.6 0.00 0.00 0.00 96 1012.5
20260510110816 13 149 1.6 1.6 0.00 0.00 0.00 97 1012.6
20260510110314 12 156 0.0 0.0 0.00 0.00 0.00 98 1012.4
20260510105810 12 156 0.0 0.0 0.00 0.00 0.00 98 1012.6
20260510105306 12 156 0.0 0.0 0.00 0.00 0.00 98 1012.3
20260510104801 12 156 0.0 0.0 0.00 0.00 0.00 98 1012.5
20260510104259 12 156 0.0 0.0 0.00 0.00 0.00 97 1012.3
20260510103755 12 156 0.0 0.0 0.00 0.00 0.00 97 1012.4
20260510103252 12 156 0.0 0.0 0.00 0.00 0.00 97 1012.4
20260510102752 12 156 0.0 0.0 0.00 0.00 0.00 97 1012.3
20260510102248 12 156 0.0 0.0 0.00 0.00 0.00 96 1012.2
20260510101745 12 156 0.0 0.0 0.00 0.00 0.00 96 1011.9
20260510101244 12 157 0.0 0.0 0.00 0.00 0.00 96 1011.9
20260510100739 12 162 1.6 1.6 0.00 0.00 0.00 96 1011.8
20260510100238 12 160 0.0 0.0 0.00 0.00 0.00 96 1011.8
20260510095733 12 162 1.6 1.6 0.00 0.00 0.00 97 1011.7
20260510095228 12 163 1.6 1.6 0.00 0.00 0.00 98 1011.8
20260510094727 11 161 0.0 1.6 0.00 0.00 0.00 98 1011.6
20260510094223 11 161 0.0 0.0 0.00 0.00 0.00 98 1011.4
20260510093719 11 161 0.0 0.0 0.00 0.00 0.00 98 1011.4
20260510093216 12 161 0.0 0.0 0.00 0.00 0.00 98 1011.3
20260510092712 11 158 0.0 0.0 0.00 0.00 0.00 98 1011.3
20260510092208 12 158 0.0 0.0 0.00 0.00 0.00 98 1011.2
20260510091704 12 163 0.0 0.0 0.00 0.00 0.00 98 1011.3
20260510091200 11 154 1.6 3.2 0.00 0.00 0.00 98 1011.3
20260510090657 11 158 0.0 0.0 0.00 0.00 0.00 98 1011.1
20260510090154 11 158 0.0 0.0 0.00 0.00 0.00 98 1011.0
20260510085649 11 158 0.0 0.0 0.00 0.00 0.00 97 1011.0
20260510085144 12 158 0.0 0.0 0.00 0.00 0.00 97 1011.1
20260510084641 12 159 0.0 0.0 0.00 0.00 0.00 97 1011.1
20260510084137 12 159 0.0 0.0 0.00 0.00 0.00 97 1011.0
20260510083634 11 157 0.0 0.0 0.00 0.00 0.00 97 1011.0
20260510083131 12 159 0.0 0.0 0.00 0.00 0.00 97 1011.2
20260510082627 12 159 0.0 0.0 0.00 0.00 0.00 97 1011.2
20260510082124 12 159 0.0 0.0 0.00 0.00 0.00 96 1011.2
20260510081623 12 159 0.0 0.0 0.00 0.00 0.00 96 1011.1
20260510081120 12 159 0.0 0.0 0.00 0.00 0.00 96 1011.3
20260510080619 12 159 0.0 0.0 0.00 0.00 0.00 96 1011.1
20260510080116 12 159 0.0 0.0 0.00 0.00 0.00 95 1010.9
20260510075613 12 162 0.0 0.0 0.00 0.00 0.00 94 1010.9
20260510075110 12 162 0.0 0.0 0.00 0.00 0.00 94 1010.7
20260510074607 12 163 3.2 3.2 0.00 0.00 0.00 95 1010.5
20260510074103 12 156 0.0 0.0 0.00 0.00 0.00 94 1010.6
20260510073559 13 156 0.0 0.0 0.00 0.00 0.00 93 1010.7
20260510073056 13 156 0.0 0.0 0.00 0.00 0.00 92 1010.7
20260510072553 13 157 0.0 0.0 0.00 0.00 0.00 92 1010.6
20260510072048 13 163 1.6 1.6 0.00 0.00 0.00 92 1010.8
20260510071545 13 159 1.6 1.6 0.00 0.00 0.00 92 1011.0
20260510071043 13 145 0.0 0.0 0.00 0.00 0.00 92 1010.8
20260510070540 13 155 0.0 0.0 0.00 0.00 0.00 91 1010.9
20260510070037 13 168 1.6 3.2 0.00 0.00 0.00 92 1010.8
20260510065533 13 173 4.8 4.8 0.00 0.00 0.00 93 1010.7
20260510065029 13 150 0.0 1.6 0.00 0.00 0.00 93 1010.6
20260510064526 13 150 0.0 0.0 0.00 0.00 0.00 93 1010.6
20260510064022 13 150 0.0 1.6 0.00 0.00 0.00 94 1010.9
20260510063519 13 142 0.0 0.0 0.00 0.00 0.00 93 1010.7
20260510063017 13 143 0.0 0.0 0.00 0.00 0.00 94 1010.7
20260510062512 13 142 0.0 0.0 0.00 0.00 0.00 94 1010.7
20260510062007 13 142 0.0 0.0 0.00 0.00 0.00 93 1010.7
20260510061505 13 142 0.0 0.0 0.00 0.00 0.00 93 1010.8
20260510061001 13 142 0.0 0.0 0.00 0.00 0.00 93 1010.6
20260510060458 13 142 0.0 0.0 0.00 0.00 0.00 92 1010.7
20260510055954 13 142 0.0 0.0 0.00 0.00 0.00 92 1010.6
20260510055450 13 142 0.0 0.0 0.00 0.00 0.00 92 1010.5
20260510054948 13 142 0.0 0.0 0.00 0.00 0.00 91 1010.7
20260510054443 13 143 0.0 0.0 0.00 0.00 0.00 91 1010.7
20260510053938 13 142 0.0 0.0 0.00 0.00 0.00 90 1010.7
20260510053434 14 142 0.0 0.0 0.00 0.00 0.00 89 1010.8
20260510052930 15 142 0.0 0.0 0.00 0.00 0.00 89 1010.9
20260510052426 15 143 0.0 0.0 0.00 0.00 0.00 88 1010.9
20260510051922 15 156 1.6 1.6 0.00 0.00 0.00 88 1010.9
20260510051419 15 145 0.0 0.0 0.00 0.00 0.00 87 1010.9
20260510050915 15 163 3.2 3.2 0.00 0.00 0.00 87 1010.7
20260510050412 15 143 0.0 0.0 0.00 0.00 0.00 85 1010.7
20260510045910 16 143 0.0 0.0 0.00 0.00 0.00 85 1010.8
20260510045407 16 175 4.8 4.8 0.00 0.00 0.00 85 1011.0
20260510044903 16 169 3.2 3.2 0.00 0.00 0.00 85 1010.8
20260510044400 16 151 1.6 3.2 0.00 0.00 0.00 84 1010.8
20260510043857 16 209 3.2 4.8 0.00 0.00 0.00 84 1010.8
20260510043353 16 161 3.2 3.2 0.00 0.00 0.00 84 1010.9
20260510042851 16 207 3.2 8.0 0.00 0.00 0.00 84 1010.8
20260510042346 16 153 1.6 1.6 0.00 0.00 0.00 83 1010.8
20260510041843 16 157 6.4 8.0 0.00 0.00 0.00 83 1010.8
20260510041340 16 144 6.4 9.7 0.00 0.00 0.00 83 1010.9
20260510040838 16 199 3.2 4.8 0.00 0.00 0.00 83 1010.8
20260510040334 16 207 3.2 3.2 0.00 0.00 0.00 83 1010.8
20260510035829 16 203 3.2 4.8 0.00 0.41 0.41 83 1011.0
20260510035326 16 157 1.6 3.2 0.00 0.41 0.41 83 1010.7
20260510034821 16 0 4.8 8.0 0.00 0.41 0.41 82 1010.8
20260510034319 16 149 3.2 3.2 0.00 0.41 0.41 83 1010.7
20260510033816 16 139 3.2 4.8 0.00 0.41 0.41 83 1010.6
20260510033313 16 165 4.8 4.8 0.00 0.41 0.41 83 1010.6
20260510032809 16 143 0.0 1.6 0.00 0.41 0.41 83 1010.6
20260510032306 16 152 1.6 3.2 0.00 0.41 0.41 83 1010.3
20260510031801 16 170 3.2 3.2 0.00 0.41 0.41 83 1010.6
20260510031258 16 153 3.2 3.2 0.00 0.41 0.41 83 1010.3
20260510030757 16 173 3.2 3.2 0.00 0.41 0.41 83 1010.3
20260510030254 16 174 4.8 4.8 0.00 0.41 0.41 83 1010.1
20260510025751 16 149 1.6 1.6 0.00 0.41 0.41 82 1010.1
20260510025249 16 152 1.6 3.2 0.00 0.41 0.41 82 1010.5
20260510024745 16 152 0.0 1.6 0.00 0.41 0.41 82 1010.2
20260510024242 16 159 1.6 3.2 0.00 0.41 0.41 82 1010.3
20260510023738 16 155 4.8 4.8 0.00 0.41 0.41 82 1009.9
20260510023235 16 152 0.0 0.0 0.00 0.41 0.41 82 1010.0
20260510022732 16 148 0.0 0.0 0.00 0.41 0.41 81 1010.0
20260510022231 16 151 0.0 0.0 0.00 0.41 0.41 81 1010.0
20260510021726 16 157 1.6 1.6 0.00 0.41 0.41 81 1010.0
20260510021224 16 156 1.6 1.6 0.00 0.41 0.41 80 1009.8
20260510020719 16 141 3.2 4.8 0.00 0.41 0.41 80 1009.9
20260510020220 16 139 0.0 1.6 0.00 0.41 0.41 81 1009.7
20260510015716 16 126 0.0 1.6 0.00 0.41 0.41 80 1009.8
20260510015212 16 147 0.0 0.0 0.00 0.41 0.41 80 1009.7
20260510014707 16 148 0.0 0.0 0.00 0.41 0.41 79 1009.5
20260510014200 16 144 0.0 1.6 0.00 0.41 0.41 79 1009.5
20260510013700 17 154 0.0 1.6 0.00 0.41 0.41 78 1009.4
20260510013156 17 146 1.6 1.6 0.00 0.41 0.41 78 1009.3
20260510012655 17 151 1.6 1.6 0.00 0.41 0.41 78 1009.2
20260510012151 17 135 0.0 0.0 0.00 0.41 0.41 78 1009.3
20260510011646 17 153 0.0 0.0 0.00 0.41 0.41 77 1009.2
20260510011142 17 152 0.0 0.0 0.00 0.41 0.41 76 1009.1
20260510010638 17 152 1.6 1.6 0.00 0.41 0.41 76 1008.9
20260510010136 17 145 0.0 0.0 0.00 0.41 0.41 76 1008.8
20260510005631 17 154 1.6 3.2 0.00 0.41 0.41 75 1008.7
20260510005129 17 150 0.0 0.0 0.00 0.41 0.41 75 1008.7
20260510004627 17 157 1.6 1.6 0.00 0.41 0.41 75 1008.5
20260510004124 17 150 0.0 0.0 0.00 0.41 0.41 75 1008.7
20260510003621 18 150 0.0 0.0 0.00 0.41 0.41 74 1008.6
20260510003117 18 144 0.0 0.0 0.00 0.41 0.41 72 1008.7
20260510002612 18 144 0.0 0.0 0.00 0.41 0.41 71 1008.5
20260510002109 19 144 0.0 0.0 0.00 0.41 0.41 70 1008.4
20260510001606 19 153 3.2 3.2 0.00 0.41 0.41 70 1008.3
20260510001105 19 151 1.6 1.6 0.00 0.41 0.41 70 1008.4
20260510000605 20 186 3.2 3.2 0.00 0.41 0.41 68 1008.2
20260509235558 20 124 4.8 4.8 0.00 0.41 0.41 66 1008.3
20260509235055 20 146 0.0 1.6 0.00 0.41 0.41 66 1008.2
20260509234551 20 168 3.2 3.2 0.00 0.41 0.41 65 1008.0
20260509234049 21 137 1.6 1.6 0.00 0.41 0.41 65 1008.1
20260509233547 21 303 4.8 9.7 0.00 0.41 0.41 63 1008.1
20260509233044 22 143 4.8 8.0 0.00 0.41 0.41 62 1008.1
20260509232540 22 136 0.0 1.6 0.00 0.41 0.41 62 1008.1
20260509232037 22 201 4.8 4.8 0.00 0.41 0.41 60 1008.2
20260509231533 23 122 1.6 1.6 0.00 0.41 0.41 60 1008.0
20260509231031 23 170 3.2 3.2 0.00 0.41 0.41 58 1008.1
20260509230528 22 141 0.0 0.0 0.00 0.41 0.41 61 1007.6
20260509230025 22 178 3.2 3.2 0.00 0.41 0.41 60 1007.8
20260509225520 22 214 4.8 4.8 0.00 0.41 0.41 60 1007.9
20260509225016 22 174 1.6 3.2 0.00 0.41 0.41 60 1007.9
20260509224512 23 215 8.0 12.9 0.00 0.41 0.41 59 1008.0
20260509224009 23 200 4.8 8.0 0.00 0.41 0.41 58 1008.0
20260509223505 23 148 3.2 3.2 0.00 0.41 0.41 59 1008.3
20260509223004 23 166 4.8 4.8 0.00 0.41 0.41 58 1008.2
20260509222459 23 217 8.0 9.7 0.00 0.41 0.41 59 1008.0
20260509221954 23 159 4.8 8.0 0.00 0.41 0.41 59 1008.1
20260509221451 23 249 4.8 8.0 0.00 0.41 0.41 58 1008.2
20260509220947 23 284 4.8 8.0 0.00 0.41 0.41 58 1008.1
20260509220443 23 226 8.0 11.3 0.00 0.41 0.41 59 1008.3
20260509215939 22 154 3.2 3.2 0.00 0.41 0.41 60 1008.3
20260509215435 23 217 4.8 8.0 0.00 0.41 0.41 59 1008.3
20260509214932 23 227 9.7 12.9 0.00 0.41 0.41 59 1008.4
20260509214430 23 230 6.4 9.7 0.00 0.41 0.41 58 1008.5
20260509213926 23 197 6.4 8.0 0.00 0.41 0.41 58 1008.7
20260509213422 23 160 3.2 3.2 0.00 0.41 0.41 61 1008.6
20260509212920 23 214 6.4 9.7 0.00 0.41 0.41 59 1008.5
20260509212417 23 204 6.4 8.0 0.00 0.41 0.41 62 1008.6
20260509211913 23 151 3.2 3.2 0.00 0.41 0.41 61 1008.7
20260509211409 23 103 1.6 3.2 0.00 0.41 0.41 60 1008.6
20260509210905 23 214 8.0 11.3 0.00 0.41 0.41 60 1008.5
20260509210403 23 138 4.8 8.0 0.00 0.41 0.41 61 1008.6
20260509205903 23 240 4.8 8.0 0.00 0.41 0.41 61 1008.3
20260509205358 23 151 3.2 3.2 0.00 0.41 0.41 61 1008.5
20260509204855 23 207 6.4 8.0 0.00 0.41 0.41 59 1008.5
20260509204351 23 241 6.4 8.0 0.00 0.41 0.41 61 1008.6
20260509203847 23 214 9.7 12.9 0.00 0.41 0.41 61 1008.6
20260509203344 23 243 6.4 8.0 0.00 0.41 0.41 61 1008.6
20260509202841 21 231 4.8 4.8 0.00 0.41 0.41 64 1008.8
20260509202337 22 225 6.4 8.0 0.00 0.41 0.41 62 1008.7
20260509201837 22 208 6.4 9.7 0.00 0.41 0.41 60 1008.7
20260509201328 22 273 6.4 11.3 0.00 0.41 0.41 62 1008.5
20260509200824 23 213 8.0 11.3 0.00 0.41 0.41 61 1008.8
20260509200320 22 177 4.8 8.0 0.00 0.41 0.41 64 1008.7
20260509195817 22 223 6.4 8.0 0.00 0.41 0.41 65 1009.2
20260509195316 22 223 6.4 8.0 0.00 0.41 0.41 64 1009.4
20260509194816 21 145 3.2 3.2 0.00 0.41 0.41 69 1009.2
20260509194312 21 138 1.6 3.2 0.00 0.41 0.41 69 1009.3
20260509193809 21 199 3.2 4.8 0.00 0.41 0.41 68 1009.2
20260509193309 21 148 1.6 1.6 0.00 0.41 0.41 69 1009.2
20260509192805 21 133 4.8 8.0 0.00 0.41 0.41 67 1009.1
20260509192305 21 112 1.6 3.2 0.00 0.41 0.41 67 1009.4
20260509191756 21 249 8.0 11.3 0.00 0.41 0.41 66 1009.2
20260509191253 22 158 4.8 8.0 0.00 0.41 0.41 66 1009.4
20260509190749 22 256 8.0 11.3 0.00 0.41 0.41 66 1009.6
20260509190246 22 239 6.4 9.7 0.00 0.41 0.41 69 1009.5
20260509185743 22 138 4.8 8.0 0.00 0.41 0.41 65 1009.5
20260509185239 22 201 3.2 4.8 0.00 0.41 0.41 66 1009.3
20260509184737 22 291 8.0 11.3 0.00 0.41 0.41 65 1009.3
20260509184234 21 231 6.4 9.7 0.00 0.41 0.41 67 1009.4
20260509183731 21 190 3.2 4.8 0.00 0.41 0.41 70 1009.3
20260509183226 20 150 4.8 4.8 0.00 0.41 0.41 71 1009.3
20260509182721 21 154 3.2 4.8 0.00 0.41 0.41 68 1009.4
20260509182219 21 145 3.2 3.2 0.00 0.41 0.41 70 1009.3
20260509181717 21 180 8.0 11.3 0.00 0.41 0.41 65 1009.2
20260509181214 20 153 4.8 4.8 0.00 0.41 0.41 69 1009.5
20260509180711 20 148 1.6 3.2 0.00 0.41 0.41 72 1009.5
20260509180207 20 147 9.7 12.9 0.00 0.41 0.41 68 1009.5